TimeEDT,TemperatureF,Dew PointF,Humidity,Sea Level PressureIn,VisibilityMPH,Wind Direction,Wind SpeedMPH,Gust SpeedMPH,PrecipitationIn,Events,Conditions,WindDirDegrees,DateUTC
12:52 AM,46.9,32.0,56,29.84,10.0,WSW,3.5,-,N/A,,Clear,240,2013-03-16 04:52:00
1:52 AM,48.0,33.1,56,29.81,10.0,SW,4.6,-,N/A,,Clear,230,2013-03-16 05:52:00
2:52 AM,46.9,34.0,61,29.79,10.0,WSW,8.1,-,N/A,,Mostly Cloudy,250,2013-03-16 06:52:00
3:52 AM,48.9,37.0,64,29.75,10.0,West,6.9,-,N/A,,Mostly Cloudy,260,2013-03-16 07:52:00
4:52 AM,51.1,41.0,68,29.73,10.0,SW,10.4,-,N/A,,Mostly Cloudy,230,2013-03-16 08:52:00
5:52 AM,53.1,39.9,61,29.71,10.0,West,16.1,20.7,N/A,,Scattered Clouds,260,2013-03-16 09:52:00
6:52 AM,54.0,41.0,62,29.74,10.0,West,18.4,26.5,0.00,,Mostly Cloudy,270,2013-03-16 10:52:00
7:52 AM,53.1,41.0,64,29.75,10.0,West,15.0,21.9,0.00,,Clear,270,2013-03-16 11:52:00
8:52 AM,55.0,42.1,62,29.75,10.0,West,17.3,25.3,N/A,,Partly Cloudy,260,2013-03-16 12:52:00
9:52 AM,59.0,42.1,53,29.73,10.0,West,17.3,24.2,N/A,,Clear,260,2013-03-16 13:52:00
10:52 AM,62.1,42.1,48,29.72,10.0,West,13.8,21.9,N/A,,Clear,270,2013-03-16 14:52:00
11:52 AM,64.0,42.1,45,29.71,10.0,West,16.1,25.3,N/A,,Clear,260,2013-03-16 15:52:00
12:52 PM,66.9,43.0,42,29.70,10.0,West,16.1,27.6,N/A,,Clear,260,2013-03-16 16:52:00
1:52 PM,66.9,43.0,42,29.69,10.0,WSW,17.3,26.5,N/A,,Clear,250,2013-03-16 17:52:00
2:52 PM,70.0,43.0,38,29.66,10.0,West,16.1,24.2,N/A,,Clear,260,2013-03-16 18:52:00
3:52 PM,71.1,43.0,36,29.63,10.0,West,18.4,35.7,N/A,,Partly Cloudy,260,2013-03-16 19:52:00
4:33 PM,64.4,44.6,49,29.71,10.0,West,13.8,28.8,0.00,Rain-Thunderstorm,Light Rain,270,2013-03-16 20:33:00
4:52 PM,57.9,48.9,72,29.71,4.0,West,15.0,29.9,0.08,Rain-Thunderstorm,Thunderstorms and Rain,280,2013-03-16 20:52:00
5:16 PM,59.0,50.0,72,29.76,10.0,West,9.2,-,0.00,Rain,Light Rain,260,2013-03-16 21:16:00
5:52 PM,60.1,48.9,67,29.72,10.0,West,12.7,-,0.00,,Overcast,260,2013-03-16 21:52:00
6:52 PM,57.9,48.9,72,29.74,10.0,West,11.5,-,N/A,,Partly Cloudy,260,2013-03-16 22:52:00
7:52 PM,57.0,48.0,72,29.77,10.0,West,8.1,-,N/A,,Clear,260,2013-03-16 23:52:00
8:52 PM,55.0,46.9,74,29.79,10.0,WSW,9.2,-,N/A,,Clear,250,2013-03-17 00:52:00
9:52 PM,55.9,46.9,72,29.80,10.0,West,8.1,-,N/A,,Partly Cloudy,280,2013-03-17 01:52:00
10:52 PM,55.9,46.0,69,29.82,10.0,Calm,Calm,-,N/A,,Clear,0,2013-03-17 02:52:00
11:28 PM,53.6,44.6,72,29.90,10.0,Calm,Calm,-,N/A,,Mostly Cloudy,0,2013-03-17 03:28:00
11:52 PM,53.1,46.0,77,29.85,10.0,Calm,Calm,-,N/A,,Overcast,0,2013-03-17 03:52:00